Location: Villingen
(48.0639°N, 8.4609°E)
Time: 22:31:33
(UTC+01:00)

OTV 5 (USA 277) - Visible Passes

Search period start: 16 January 2018 00:00
Search period end: 26 January 2018 00:00
Orbit: 404 x 417 km, 43.0° (Epoch: 07 September)

Date Brightness Start Highest point End Pass type
(mag) Time Alt. Az. Time Alt. Az. Time Alt. Az.
23 Jan ? 19:17:10 10° SSW 19:18:11 14° S 19:18:11 14° S visible
24 Jan ? 18:27:10 10° S 18:28:21 11° SSE 18:29:32 10° SE visible
24 Jan ? 20:02:04 10° SW 20:02:26 12° SW 20:02:26 12° SW visible
25 Jan ? 19:11:17 10° SW 19:13:51 24° S 19:13:51 24° S visible
